Location: Voyageurs National Park
(48.5020°N, 92.9292°W)
Time: 08:30:06
(UTC-05:00)

Daily predictions for brighter satellites

Satellite Brightness Start Highest point End
(mag) Time Altitude Azimuth Time Altitude Azimuth Time Altitude Azimuth
Meteor 2-10 Rocket 4.2 20:47:03 10° SSE 20:52:26 41° E 20:57:47 10° NNE
Abrixas rocket 2.2 20:57:57 10° W 21:01:15 89° N 21:04:33 10° E
BREEZE-M DEB (TANK) 3.5 20:58:15 10° WSW 21:01:23 67° S 21:09:55 10° E
Cosmos 2279 Rocket 4.0 20:55:12 10° S 21:01:25 77° E 21:07:39 10° NNE
SJ-11-01 4.3 20:57:44 10° SSE 21:02:22 67° ENE 21:07:01 10° N
Cosmos 968 Rocket 3.5 20:57:52 10° NNW 21:03:06 84° ENE 21:08:20 10° SSE
CZ-4B DEB 2.6 21:01:59 10° SSE 21:04:59 71° ENE 21:08:02 10° N
Cosmos 1933 3.3 21:01:38 10° S 21:05:39 74° E 21:09:40 10° NNE
Cosmos 2219 Rocket 3.7 21:03:34 10° SE 21:06:37 15° E 21:09:41 10° ENE
H-2A R/B 4.3 21:12:41 10° ENE 21:13:47 11° NE 21:14:54 10° NE
Cosmos 1862 4.3 21:10:10 10° NNW 21:14:05 50° W 21:18:01 10° S
Cosmos 1908 Rocket 3.5 21:11:00 10° N 21:15:22 73° E 21:19:42 10° SSE
Resurs 01 Rocket 3.5 21:11:37 10° SSW 21:15:36 32° W 21:19:38 10° NNW
SAR-Lupe-4 4.1 21:14:42 10° S 21:18:16 60° WSW 21:21:50 10° NNW
USA 234 3.3 21:14:57 10° SE 21:21:31 86° SW 21:28:06 10° NW
Meteor 1-29 2.9 21:18:22 10° NNE 21:21:51 70° E 21:25:18 10° S
Cosmos 2263 Rocket 3.5 21:17:52 10° NW 21:22:59 38° WSW 21:28:04 10° S
Sich 1 Rocket 3.7 21:22:07 10° N 21:26:37 87° W 21:31:09 10° S
Cosmos 1782 4.2 21:24:25 13° SE 21:26:54 22° E 21:30:01 10° NE
Envisat 3.4 21:22:44 10° S 21:27:46 66° WSW 21:32:51 10° NNW
Meteor 1-26 Rocket 4.3 21:23:20 10° S 21:29:01 68° E 21:34:50 10° NNE
Cosmos 1782 Rocket 3.6 21:25:46 10° N 21:30:08 62° ENE 21:34:23 11° SSE
Helios 1A 4.1 21:28:09 10° S 21:32:12 44° W 21:36:19 10° NNW
CZ-4C R/B 3.3 21:31:15 10° NW 21:37:54 53° NE 21:44:27 14° ESE
Okean 1-7 3.4 21:33:49 10° SSE 21:38:02 46° E 21:42:16 10° NNE
Cosmos 2322 Rocket 3.6 21:35:23 10° WSW 21:40:41 42° NW 21:46:03 10° NNE
H-2A R/B 3.0 21:37:56 15° ESE 21:41:15 30° ENE 21:45:31 10° N
MetOp-B 4.2 21:38:14 13° SSE 21:42:58 63° ENE 21:48:16 10° N
Cosmos 2084 3.6 21:39:37 10° NW 21:43:22 52° NE 21:46:00 19° ESE
Cosmos 1939 Rocket 3.8 21:39:30 10° S 21:43:23 48° W 21:47:15 10° NNW
Cosmos 2237 4.2 21:38:09 10° SSW 21:43:47 62° ESE 21:49:26 10° NNE
SeaSat 1 3.1 21:41:46 16° ESE 21:45:25 43° NE 21:50:06 10° NNW
ERS-1 Rocket 3.0 21:42:01 10° SSE 21:47:03 87° WSW 21:52:07 10° NNW
Cosmos 2360 Rocket 2.3 21:41:44 10° SSW 21:47:24 81° WNW 21:53:07 10° NNE
USA 245 4.2 21:43:25 16° SE 21:47:34 51° ENE 21:51:52 10° N
Okean 2 Rocket 3.1 21:43:41 10° N 21:48:13 69° E 21:51:48 16° SSE
SPOT 5 2.9 21:48:33 18° SE 21:52:00 57° ENE 21:56:26 10° N
ATLAS 5 CENTAUR R/B 3.9 21:47:27 10° WNW 21:52:40 31° WSW 21:58:13 10° S
COSMOS 2428 2.8 21:47:49 10° S 21:53:22 57° ESE 21:58:58 10° NE
Atlas Centaur 2 4.2 21:52:02 10° SW 21:56:15 17° S 21:58:46 15° SSE
Cosmos 1844 3.7 21:53:28 10° NNW 21:59:11 81° ENE 22:03:07 20° SSE
NOAA 11 4.2 21:56:06 14° SSE 22:00:49 88° ENE 22:06:21 10° NNW
ARGOS 3.1 22:00:07 19° SSE 22:04:06 73° ENE 22:09:29 10° N
NOSS 3-1 (C) 3.7 21:58:57 10° S 22:04:22 42° ESE 22:10:25 10° NE
Cosmos 1606 3.1 22:02:44 26° SSE 22:04:23 42° E 22:08:00 10° NNE
Meteor 1-10 Rocket 4.5 22:00:11 13° SSE 22:05:13 53° E 22:10:52 10° NNE
Meteor 1-11 Rocket 4.2 22:00:29 10° N 22:05:45 43° ENE 22:08:49 23° SE
Iridium 4 Rocket 4.4 22:02:51 10° NNE 22:06:06 21° ENE 22:07:09 20° E
Helios 1B rocket 4.2 22:02:31 10° N 22:06:15 34° WNW 22:09:57 10° SW
Cosmos 1703 Rocket 4.0 22:02:27 10° SSW 22:06:51 62° WNW 22:11:14 10° N
SL-16 R/B 4.1 22:07:51 11° E 22:07:51 11° E 22:09:16 10° ENE
Cosmos 2322 4.1 22:02:07 10° SW 22:07:48 67° WNW 22:13:30 10° NNE
ASTEX 1 4.3 22:08:04 23° ESE 22:10:20 34° ENE 22:14:49 10° N
MOS 1-B Rocket 3.8 22:06:17 19° SSE 22:10:34 80° ENE 22:16:11 10° NNW
Meteor 1-25 Rocket 4.5 22:05:05 10° NNW 22:10:39 68° W 22:15:33 13° S
USA 229 DEB 3.7 22:04:29 10° SW 22:11:21 88° NW 22:18:23 10° NE
USA 229 3.7 22:04:36 10° SW 22:11:28 89° NW 22:18:30 10° NE
SL-16 R/B 4.4 22:07:41 10° WSW 22:12:31 28° NW 22:17:24 10° NNE
YAOGAN 6 4.1 22:09:26 10° SSW 22:12:45 33° W 22:16:03 10° NNW
Landsat 7 4.3 22:12:37 26° SE 22:14:56 45° ENE 22:19:28 10° N
Meteor 1-20 Rocket 4.5 22:12:05 10° NNW 22:17:39 68° W 22:22:23 15° S
Cosmos 1898 Rocket 4.1 22:12:56 10° NNW 22:17:56 44° ENE 22:20:28 26° ESE
CARTOSAT-1 4.5 22:19:48 27° ESE 22:21:19 35° ENE 22:25:16 10° N
NOSS 3-1 (A) 3.8 22:16:13 10° S 22:21:38 41° ESE 22:27:41 10° NE
Cosmos 2151 Rocket 3.5 22:18:23 10° N 22:22:51 78° E 22:25:00 30° SSE
ATLAS 2AS CENTAUR R/B 4.5 22:23:55 15° ESE 22:23:55 15° ESE 22:28:01 10° ENE
Cosmos 1844 Rocket 3.2 22:18:46 10° NW 22:24:11 53° WSW 22:27:56 20° S
Cosmos 1745 Rocket 4.3 22:18:50 10° N 22:25:03 53° ENE 22:28:23 27° SE
Cosmos 2237 Rocket 2.7 22:24:38 27° SSE 22:26:51 37° ESE 22:32:04 10° NE
USA 267 3.8 22:21:20 10° NE 22:27:46 61° NNW 22:34:11 10° W
Cosmos 2278 Rocket 2.2 22:22:50 10° NNW 22:28:33 77° ENE 22:31:26 30° SE
Cosmos 1536 3.7 22:25:09 10° N 22:28:51 34° ENE 22:29:40 31° E
SPOT 1/Viking Rocket 3.5 22:26:06 26° SSE 22:29:07 88° ENE 22:34:23 10° NNW
Cosmos 2333 4.2 22:24:17 10° SSW 22:30:01 88° WNW 22:35:51 10° NNE
Terra 2.3 22:28:13 30° ESE 22:30:03 45° ENE 22:34:36 10° N
Cosmos 2333 Rocket 2.3 22:28:14 17° S 22:32:34 55° ESE 22:38:12 10° NE
NOSS 0 Rocket 4.1 22:30:34 19° S 22:34:48 51° ESE 22:40:44 10° NE
Okean 1 Rocket 3.7 22:30:34 10° N 22:34:48 41° ENE 22:35:57 34° ESE
Cosmos 1674 Rocket 3.8 22:36:42 40° SE 22:37:40 48° E 22:41:50 10° NNE
Abrixas rocket 2.5 22:34:46 10° W 22:37:53 49° SSW 22:37:53 49° SSW
Meteor 2-6 Rocket 4.3 22:33:58 16° S 22:38:49 86° ESE 22:44:48 10° NNE
ATLAS 3B R/B 3.7 22:37:45 10° NW 22:44:12 38° NNE 22:49:10 15° E
Cosmos 1633 2.8 22:43:28 10° NNW 22:47:07 63° W 22:48:06 43° SSW
H-2A R/B 2.0 22:47:46 46° SE 22:48:58 74° ENE 22:53:23 10° N
Cosmos 2219 Rocket 2.1 22:44:06 10° SSW 22:49:43 88° ESE 22:55:23 10° NNE
Cosmos 468 Rocket 4.4 22:52:00 39° SE 22:52:58 43° ESE 22:57:59 10° NE
Meteor 1-5 Rocket 4.4 22:50:23 10° N 22:56:01 61° ENE 22:58:04 39° SE
CZ-4B R/B 4.1 22:52:52 10° NNE 22:57:13 34° E 22:57:20 34° E
Geosat 4.5 22:57:55 10° NE 23:02:38 39° ESE 23:02:40 39° ESE
Cosmos 1975 Rocket 4.2 23:03:03 29° E 23:03:03 29° E 23:06:43 10° NNE
CZ-4 R/B 4.2 22:58:16 10° NNE 23:02:54 44° E 23:03:22 43° ESE
Cosmos 1782 4.3 23:00:01 14° SW 23:03:04 34° WNW 23:06:46 10° N
USA 234 4.4 23:02:14 21° SSW 23:05:07 29° SW 23:10:42 10° WNW
Cosmos 1602 4.4 23:02:36 10° NNW 23:06:20 49° W 23:07:11 40° SW
Cosmos 1300 Rocket 3.7 23:03:13 10° NNW 23:07:34 70° W 23:08:37 49° SSW
Cosmos 1553 Rocket 4.0 23:06:14 26° SSW 23:10:01 81° W 23:16:14 10° N
Cosmos 1346 Rocket 3.3 23:14:36 39° SW 23:15:45 55° WNW 23:19:42 10° N
Aureole 2 Rocket 3.8 23:19:52 29° N 23:19:52 29° N 23:21:28 10° NNE
H-2A R/B 2.9 23:18:33 27° SW 23:20:34 39° W 23:25:13 10° NNW
Cosmos 2315 Rocket 4.3 23:19:17 41° SE 23:20:43 49° E 23:26:41 10° NNE
Cosmos 2298 Rocket 4.1 23:16:34 10° NNW 23:21:53 69° WSW 23:23:16 48° S
Cosmos 2369 Rocket 3.9 23:17:54 10° N 23:22:22 24° NE 23:25:24 16° E
Cosmos 1812 4.1 23:23:24 28° ENE 23:23:24 28° ENE 23:25:56 10° NNE
SeaSat 1 3.6 23:21:33 28° SW 23:23:02 34° WSW 23:27:31 10° NW
Cosmos 332 Rocket 4.1 23:25:38 48° E 23:25:38 48° E 23:30:03 10° NNE
Meteor 1-27 Rocket 4.1 23:22:18 26° SSW 23:25:31 62° WNW 23:31:03 10° N
Cosmos 1943 Rocket 4.5 23:22:02 10° N 23:25:38 17° NE 23:29:13 10° ENE
Cosmos 2297 3.6 23:20:15 10° NNW 23:26:00 84° WSW 23:27:27 52° SSE
CZ-4C R/B 3.3 23:19:51 10° NW 23:26:39 51° WSW 23:29:38 34° S
Cosmos 1937 Rocket 3.6 23:28:12 10° NNW 23:33:25 65° WSW 23:34:27 52° SSW
DMSP B5D2-2 4.4 23:29:13 10° N 23:34:27 65° WNW 23:36:45 34° SW
Cosmos 1378 Rocket 3.5 23:34:52 70° SW 23:35:20 80° W 23:39:48 10° N
Cosmos 883 Rocket 4.3 23:35:25 47° S 23:37:21 85° E 23:43:30 10° N
Cosmos 990 Rocket 4.0 23:35:20 10° NNW 23:40:27 67° WSW 23:41:14 58° SSW
Okean 3 3.6 23:42:48 62° W 23:43:04 63° WNW 23:47:14 10° N
Cosmos 1980 4.2 23:39:49 18° SW 23:43:55 59° WNW 23:49:31 10° NNE
SL-24 DEB 4.1 23:43:52 78° SE 23:44:06 82° E 23:48:46 10° N
ATLAS CENTAUR R/B 2.2 23:45:52 40° ENE 23:45:52 40° ENE 23:48:34 10° NE
Cosmos 1975 3.6 23:40:52 10° N 23:44:13 42° NE 23:44:13 42° NE
Cosmos 1709 Rocket 4.0 23:38:40 10° N 23:45:06 86° W 23:46:56 50° S
Cosmos 1544 Rocket 3.8 23:41:10 10° N 23:45:26 57° ENE 23:45:26 57° ENE
Iridium 4 Rocket 4.1 23:42:24 10° NNW 23:46:13 36° W 23:46:57 33° WSW
SL-16 R/B 2.1 23:49:40 62° SSE 23:50:29 71° ESE 23:56:10 10° NNE
deb Chang Zheng 4 4.4 23:46:40 10° N 23:50:54 48° WNW 23:51:57 39° WSW
